Weather History for Eureka Airport, NV

Change the Weather History Date:

Wednesday, October 17, 2012

  Actual Average Record
Temperature  
Mean Temperature 43 °F -  
Max Temperature 62 °F - - ()
Min Temperature 24 °F - - ()
Degree Days  
Heating Degree Days 22    
Moisture  
Dew Point -    
Average Humidity    
Maximum Humidity    
Minimum Humidity    
Precipitation  
Precipitation 0.00 in - - ()
Sea Level Pressure  
Sea Level Pressure 30.28 in    
Wind  
Wind Speed 3 mph ()    
Max Wind Speed 9 mph    
Max Gust Speed -    
Visibility 10.0 miles    
Events      
T = Trace of Precipitation, MM = Missing Value Source: Averaged Metar Reports

Daily Weather History Graph

Daily Weather History Graph

Search for Another Location

Airport:

Trip Planner

Search our weather history database for the weather conditions in past years. The results will help you decide how hot, cold, wet, or windy it might be!

Date:

Astronomy

Oct. 17, 2012 Rise Set
Actual Time 6:56 AM PDT 6:01 PM PDT
Civil Twilight 6:29 AM PDT 6:28 PM PDT
Nautical Twilight 5:58 AM PDT 6:59 PM PDT
Astronomical Twilight 5:27 AM PDT 7:30 PM PDT
Moon 9:35 AM PDT (10/17) 7:41 PM PDT (10/17)
Length of Visible Light 11h 58m
Length of Day
11h 04m
Waxing Crescent, 8% of the Moon is Illuminated
Oct 17
Waxing Crescent
Oct 21
First Quarter
Oct 29
Full
Nov 6
Last Quarter
Nov 13
New

Hourly Weather History & Observations

Time (PDT) Temp. Windchill Dew Point Humidity Pressure Visibility Wind Dir Wind Speed Gust Speed Precip Events Conditions
12:15 AM 41.0 °F 38.0 °F - N/A% 30.24 in 9.0 mi NNW 4.6 mph - N/A   Clear
12:35 AM 39.2 °F 37.0 °F - N/A% 30.25 in 9.0 mi NE 3.5 mph - N/A   Clear
12:55 AM 41.0 °F 35.2 °F - N/A% 30.25 in 10.0 mi NNW 9.2 mph - N/A   Clear
1:15 AM 41.0 °F 37.1 °F - N/A% 30.25 in 10.0 mi East 5.8 mph - N/A   Clear
1:35 AM 37.4 °F 32.1 °F - N/A% 30.26 in 10.0 mi NE 6.9 mph - N/A   Clear
1:55 AM 35.6 °F 31.7 °F - N/A% 30.25 in 10.0 mi North 4.6 mph - N/A   Clear
2:15 AM 32.0 °F - - N/A% 30.25 in 10.0 mi Calm Calm - N/A   Clear
3:15 AM 28.4 °F - - N/A% 30.24 in 10.0 mi Calm Calm - N/A   Clear
3:35 AM 26.6 °F - - N/A% 30.26 in 10.0 mi Calm Calm - N/A   Clear
3:55 AM 26.6 °F - - N/A% 30.25 in 10.0 mi Calm Calm - N/A   Clear
4:15 AM 24.8 °F 17.9 °F - N/A% 30.25 in 10.0 mi SSE 5.8 mph - N/A   Clear
4:35 AM 26.6 °F 22.6 °F - N/A% 30.26 in 10.0 mi SW 3.5 mph - N/A   Clear
4:55 AM 26.6 °F 22.6 °F - N/A% 30.26 in 10.0 mi SW 3.5 mph - N/A   Clear
5:15 AM 26.6 °F 21.2 °F - N/A% 30.26 in 10.0 mi South 4.6 mph - N/A   Clear
5:35 AM 28.4 °F 23.3 °F - N/A% 30.26 in 10.0 mi SSE 4.6 mph - N/A   Clear
5:55 AM 24.8 °F - - N/A% 30.26 in 10.0 mi Calm Calm - N/A   Clear
6:15 AM 24.8 °F - - N/A% 30.26 in 10.0 mi Calm Calm - N/A   Clear
6:35 AM 26.6 °F - - N/A% 30.27 in 10.0 mi Calm Calm - N/A   Clear
6:55 AM 24.8 °F - - N/A% 30.27 in 10.0 mi Calm Calm - N/A   Clear
7:15 AM 26.6 °F - - N/A% 30.28 in 10.0 mi Calm Calm - N/A   Clear
7:35 AM 26.6 °F 20.0 °F - N/A% 30.29 in 10.0 mi SSW 5.8 mph - N/A   Clear
7:55 AM 32.0 °F 28.7 °F - N/A% 30.30 in 10.0 mi South 3.5 mph - N/A   Clear
8:15 AM 33.8 °F - - N/A% 30.31 in 10.0 mi Calm Calm - N/A   Clear
8:35 AM 37.4 °F - - N/A% 30.31 in 10.0 mi Calm Calm - N/A   Clear
8:55 AM 39.2 °F - - N/A% 30.31 in 10.0 mi Calm Calm - N/A   Clear
9:35 AM 46.4 °F - - N/A% 30.32 in 10.0 mi Calm Calm - N/A   Clear
9:55 AM 48.2 °F - - N/A% 30.32 in 10.0 mi Calm Calm - N/A   Clear
10:15 AM 50.0 °F - - N/A% 30.31 in 10.0 mi Calm Calm - N/A   Clear
10:35 AM 50.0 °F - - N/A% 30.31 in 10.0 mi Calm Calm - N/A   Clear
10:55 AM 51.8 °F - - N/A% 30.30 in 10.0 mi Calm Calm - N/A   Clear
11:15 AM 51.8 °F - - N/A% 30.30 in 10.0 mi ENE 3.5 mph - N/A   Clear
11:35 AM 53.6 °F - - N/A% 30.30 in 10.0 mi Calm Calm - N/A   Clear
11:55 AM 53.6 °F - - N/A% 30.29 in 10.0 mi SSE 3.5 mph - N/A   Clear
12:15 PM 55.4 °F - - N/A% 30.29 in 10.0 mi Calm Calm - N/A   Clear
12:35 PM 57.2 °F - - N/A% 30.29 in 10.0 mi NNE 3.5 mph - N/A   Clear
12:55 PM 57.2 °F - - N/A% 30.28 in 10.0 mi North 5.8 mph - N/A   Clear
1:15 PM 59.0 °F - - N/A% 30.28 in 10.0 mi NNW 4.6 mph - N/A   Clear
1:35 PM 59.0 °F - - N/A% 30.27 in 10.0 mi North 4.6 mph - N/A   Clear
1:55 PM 60.8 °F - - N/A% 30.26 in 10.0 mi NNE 4.6 mph - N/A   Clear
2:15 PM 60.8 °F - - N/A% 30.26 in 10.0 mi NNE 6.9 mph - N/A   Clear
2:35 PM 62.6 °F - - N/A% 30.26 in 10.0 mi NE 4.6 mph - N/A   Clear
3:15 PM 62.6 °F - - N/A% 30.26 in 10.0 mi North 8.1 mph - N/A   Clear
3:35 PM 62.6 °F - - N/A% 30.25 in 10.0 mi Calm Calm - N/A   Clear
3:55 PM 62.6 °F - - N/A% 30.25 in 10.0 mi ENE 3.5 mph - N/A   Clear
4:15 PM 62.6 °F - - N/A% 30.25 in 10.0 mi Calm Calm - N/A   Clear
4:35 PM 62.6 °F - - N/A% 30.25 in 10.0 mi Calm Calm - N/A   Clear
4:55 PM 62.6 °F - - N/A% 30.25 in 10.0 mi ENE 4.6 mph - N/A   Clear
5:15 PM 60.8 °F - - N/A% 30.26 in 10.0 mi Calm Calm - N/A   Clear
5:35 PM 59.0 °F - - N/A% 30.25 in 10.0 mi Calm Calm - N/A   Clear
5:55 PM 55.4 °F - - N/A% 30.26 in 10.0 mi Calm Calm - N/A   Clear
6:15 PM 51.8 °F - - N/A% 30.26 in 10.0 mi Calm Calm - N/A   Clear
6:35 PM 48.2 °F - - N/A% 30.26 in 10.0 mi Calm Calm - N/A   Clear
6:55 PM 48.2 °F - - N/A% 30.27 in 10.0 mi Calm Calm - N/A   Clear
7:35 PM 39.2 °F - - N/A% 30.28 in 10.0 mi Calm Calm - N/A   Clear
7:55 PM 37.4 °F - - N/A% 30.29 in 10.0 mi Calm Calm - N/A   Clear
8:15 PM 37.4 °F 33.8 °F - N/A% 30.29 in 10.0 mi South 4.6 mph - N/A   Clear
8:55 PM 33.8 °F 29.6 °F - N/A% 30.30 in 10.0 mi South 4.6 mph - N/A   Clear
9:15 PM 32.0 °F - - N/A% 30.31 in 10.0 mi Calm Calm - N/A   Clear
9:35 PM 32.0 °F 28.7 °F - N/A% 30.31 in 10.0 mi South 3.5 mph - N/A   Clear
9:55 PM 33.8 °F 30.8 °F - N/A% 30.31 in 10.0 mi South 3.5 mph - N/A   Clear
10:15 PM 33.8 °F 30.8 °F - N/A% 30.32 in 10.0 mi South 3.5 mph - N/A   Clear
10:35 PM 32.0 °F 28.7 °F - N/A% 30.32 in 10.0 mi South 3.5 mph - N/A   Clear
10:55 PM 32.0 °F - - N/A% 30.33 in 10.0 mi Calm Calm - N/A   Clear
11:35 PM 28.4 °F - - N/A% 30.33 in 10.0 mi Calm Calm - N/A   Clear
11:55 PM 28.4 °F 24.6 °F - N/A% 30.34 in 10.0 mi South 3.5 mph - N/A   Clear